[TLELIST] Archives

 

[list_settings.list_name] Current TLEs

April 19th 2014 PDT

HST 1 20580U 90037B 14109.12308177 .00004857 00000-0 32036-3 0 4848 2 20580 028.4706 065.3515 0003228 017.5033 081.8041 15.05196879115801 ISS (ZARYA) 1 25544U 98067A 14109.38487390 .00032473 00000-0 57451-3 0 1139 2 25544 051.6495 030.9996 0003472 301.0964 162.0595 15.50002970882204 CXO 1 25867U 99040B 14107.11552898 .00000000 00000-0 10000-3 0 76 2 25867 076.7365 323.3997 8196537 274.9051 006.7362 00.37809508 11687 ____________________________________________________________________ These 2-Line ...Continue Reading

[list_settings.list_name] Current TLEs

April 18th 2014 PDT

HST 1 20580U 90037B 14107.98727721 .00003754 00000-0 24494-3 0 4833 2 20580 028.4705 072.8128 0003234 005.3931 047.1871 15.05188762115631 ISS (ZARYA) 1 25544U 98067A 14108.41797605 .00024790 00000-0 44202-3 0 1060 2 25544 051.6494 035.7871 0003457 298.6891 165.7076 15.49930630882059 CXO 1 25867U 99040B 14107.11552898 .00000000 00000-0 10000-3 0 76 2 25867 076.7365 323.3997 8196537 274.9051 006.7362 00.37809508 11687 ____________________________________________________________________ These 2-Line ...Continue Reading

[list_settings.list_name] Current TLEs

April 17th 2014 PDT

HST 1 20580U 90037B 14106.34120566 .00002598 00000-0 16594-3 0 4822 2 20580 028.4703 083.6290 0003166 348.0466 127.4350 15.05175029115392 ISS (ZARYA) 1 25544U 98067A 14107.38514038 .00021568 00000-0 38653-3 0 1021 2 25544 051.6497 040.9013 0003672 296.8693 160.8492 15.49873571881896 CXO 1 25867U 99040B 14109.70701532 .00000047 00000-0 00000+0 0 160 2 25867 076.7519 323.2700 8199371 274.8764 359.4885 00.37802669 11698 ____________________________________________________________________ These 2-Line ...Continue Reading

[list_settings.list_name] Current TLEs

April 16th 2014 PDT

HST 1 20580U 90037B 14105.14090933 .00002876 00000-0 18499-3 0 4817 2 20580 028.4698 091.5183 0003062 335.2570 103.4334 15.05168840115202 ISS (ZARYA) 1 25544U 98067A 14106.36215369 .00021828 00000-0 39168-3 0 944 2 25544 051.6489 045.9668 0003770 292.4276 213.8079 15.49829464881731 CXO 1 25867U 99040B 14107.06377203 .00000015 00000-0 00000+0 0 155 2 25867 076.7485 323.3871 8203023 274.8802 359.7934 00.37804076 11684 ____________________________________________________________________ These 2-Line ...Continue Reading

[list_settings.list_name] Current TLEs

April 15th 2014 PDT

HST 1 20580U 90037B 14105.14090933 .00002876 00000-0 18499-3 0 4817 2 20580 028.4698 091.5183 0003062 335.2570 103.4334 15.05168840115202 ISS (ZARYA) 1 25544U 98067A 14105.45177205 .00022247 00000-0 39957-3 0 862 2 25544 051.6490 050.4756 0003796 290.0366 173.5431 15.49790392881599 CXO 1 25867U 99040B 14107.06377203 .00000015 00000-0 00000+0 0 155 2 25867 076.7485 323.3871 8203023 274.8802 359.7934 00.37804076 11684 ____________________________________________________________________ These 2-Line ...Continue Reading

[list_settings.list_name] Current TLEs

April 14th 2014 PDT

HST 1 20580U 90037B 14103.43088640 .00003025 00000-0 19525-3 0 4806 2 20580 028.4696 102.7531 0003054 316.6535 197.8317 15.05157691114958 ISS (ZARYA) 1 25544U 98067A 14104.48514155 .00025103 00000-0 45028-3 0 795 2 25544 051.6479 055.2627 0003759 286.0620 180.9730 15.49752254881446 CXO 1 25867U 99040B 14104.41820740 .00000040 00000-0 00000+0 0 147 2 25867 076.7417 323.5298 8205337 274.8848 359.7550 00.37805232 11672 ____________________________________________________________________ These 2-Line ...Continue Reading

[list_settings.list_name] Current TLEs

April 13th 2014 PDT

HST 1 20580U 90037B 14102.42944007 .00003071 00000-0 19845-3 0 4796 2 20580 028.4694 109.3333 0003033 305.5634 171.8158 15.05154471114805 ISS (ZARYA) 1 25544U 98067A 14103.32235382 .00083249 00000-0 14653-2 0 726 2 25544 051.6474 061.0213 0003735 283.8131 171.7524 15.49723829881268 CXO 1 25867U 99040B 14104.41820740 .00000040 00000-0 00000+0 0 147 2 25867 076.7417 323.5298 8205337 274.8848 359.7550 00.37805232 11672 ____________________________________________________________________ These 2-Line ...Continue Reading

[list_settings.list_name] Current TLEs

April 12th 2014 PDT

HST 1 20580U 90037B 14101.16170949 .00002879 00000-0 18535-3 0 4781 2 20580 028.4694 117.6639 0002957 290.9180 143.6730 15.05140277114603 ISS (ZARYA) 1 25544U 98067A 14102.22224017 .00017777 00000-0 31051-3 0 654 2 25544 051.6484 066.4687 0002214 017.5361 054.9834 15.50744522881093 CXO 1 25867U 99040B 14104.41820740 .00000040 00000-0 00000+0 0 147 2 25867 076.7417 323.5298 8205337 274.8848 359.7550 00.37805232 11672 ____________________________________________________________________ These 2-Line ...Continue Reading

[list_settings.list_name] Current TLEs

April 11th 2014 PDT

HST 1 20580U 90037B 14101.16170949 .00002879 00000-0 18535-3 0 4781 2 20580 028.4694 117.6639 0002957 290.9180 143.6730 15.05140277114603 ISS (ZARYA) 1 25544U 98067A 14101.26765318 .00016871 00000-0 29553-3 0 581 2 25544 051.6486 071.2024 0002234 014.1303 125.7662 15.50706514880943 CXO 1 25867U 99040B 14101.77504380 .00000107 00000-0 00000+0 0 135 2 25867 076.7337 323.6750 8205771 274.9059 359.9722 00.37801697 11667 ____________________________________________________________________ These 2-Line ...Continue Reading

[list_settings.list_name] Current TLEs

April 10th 2014 PDT

HST 1 20580U 90037B 14099.51331999 .00003375 00000-0 21937-3 0 4771 2 20580 028.4696 128.4977 0002871 270.1436 215.0241 15.05131548114364 ISS (ZARYA) 1 25544U 98067A 14100.41814966 .00016373 00000-0 28736-3 0 490 2 25544 051.6490 075.4164 0002200 010.9824 063.4275 15.50674958880814 CXO 1 25867U 99040B 14101.77504380 .00000107 00000-0 00000+0 0 135 2 25867 076.7337 323.6750 8205771 274.9059 359.9722 00.37801697 11667 ____________________________________________________________________ These 2-Line ...Continue Reading
  • This mailing list is a public mailing list - anyone may join or leave, at any time.
  • This mailing list is announce-only.

International Space Station (ISS) / Hubble Space Telescope (HST) / Chandra X-Ray Observatory Orbital Data via EMAIL

Privacy Policy:

Private list